Location: Monteux
(44.0348°N, 4.9972°E)
Time: 18:03:31
(UTC+00:00)

Cosmos 1933 - Pass Details

Date: 30 November 2020
Orbit: 546 x 563 km, 82.5° (Epoch: 17 January)

Event Time Altitude Azimuth Distance (km) Brightness Sun altitude
Rises 16:27:39 0° 165° (SSE) 2,719 7.0 -4.7°
Reaches altitude 10° 16:29:55 10° 156° (SSE) 1,833 6.0 -5.1°
Maximum altitude 16:33:35 34° 91° (E) 928 4.0 -5.6°
Drops below altitude 10° 16:37:17 10° 26° (NNE) 1,857 5.6 -6.3°
Sets 16:39:36 0° 18° (NNE) 2,760 6.5 -6.6°
